Weather in Sokolovka

Russia / Primorsky Krai     42°54′36″N   133°53′12″E
temp.,
°C
wind,
m/s
gust,
m/s
humid.,
%
clouds,
%
prec.,
mm/h
press.,
hPa
HPBL,
m
13 may, thu
thu1301:00+6ssw0195100 0.0 101860
04:00+5w119796 0.0 101731
07:00+6w2295100 0.0 101678
10:00+11wsw3564100 0.0 1015583
13:00+14sw4557100 0.0 1013704
16:00+15sw5658100 0.0 1011664
19:00+11w3476100 0.0 101263
22:00+9wnw338013 0.0 101339
14 may, fri
fri1401:00+10nw337418 0.0 101336
04:00+9nw327592 0.0 101327
07:00+10nnw33690 0.0 101450
10:00+18wsw1341100 0.0 10141326
13:00+18ssw3443100 0.0 10131368
16:00+17ssw454835 0.0 1013669
19:00+14wsw247143 0.0 1013115
22:00+10w2280100 0.0 101524
15 may, sat
sat1501:00+10w338187 0.0 101436
04:00+11wsw2388100 0.0 101388
07:00+11wsw2492100 0.0 1012116
10:00+14sw41081100 0.0 1011652
13:00+15sw4983100 0.0 1010565
16:00+16sw5877100 0.0 1008616
19:00+15sw478340 0.0 1007355
22:00+12w3396100 0.0 100843
16 may, sun
sun1601:00+13nw2393100 0.0 100762
04:00+12nne3491100 0.0 1007123
07:00+10ne2496100 0.9 1009140
10:00+9ne1295100 1.3 101075
13:00+10wsw1189100 0.1 1009150
16:00+13s2271100 0.1 1007333
19:00+11sw2385100 0.0 100797
22:00+10nw1188100 0.0 100717
17 may, mon
mon1701:00+10nnw2280100 0.0 100722
04:00+10nnw2267100 0.0 100630
07:00+10nnw2264100 0.0 100643
10:00+17se0145100 0.0 1005734
13:00+17s234521 0.0 10051190
16:00+16sw344967 0.0 1005531
19:00+14sw246588 0.0 1006137
22:00+11wnw2272100 0.0 100820